Location: Newark
(34.1333°N, 7.9667°W)
Time: 12:19:11
(UTC+00:00)

Envisat - Pass Details

Date: 29 September 2021
Orbit: 764 x 766 km, 98.2° (Epoch: 20 October)

Event Time Altitude Azimuth Distance (km) Brightness Sun altitude
Rises 04:51:34 0° 25° (NNE) 3,234 6.8 -20.1°
Reaches altitude 10° 04:54:10 10° 37° (NE) 2,303 6.1 -19.5°
Maximum altitude 04:58:33 29° 96° (E) 1,370 5.0 -18.6°
Drops below altitude 10° 05:02:55 10° 157° (SSE) 2,291 5.6 -17.8°
Sets 05:05:29 0° 168° (SSE) 3,212 6.3 -17.2°
